Regional Weather Roundup
Issued by NWS

Home | Current Version | Previous Version | Graphics & Text | Print | Product List | Glossary On
Versions: 1 2 3 4 5 6 7 8 9 10 11 12 13 14 15 16 17 18 19 20 21 22 23 24 25 26 27 28 29 30 31 32 33 34 35 36 37 38 39 40 41 42 43 44 45 46 47 48 49 50
000
ASUS45 KBOU 041707
RWRCO

WEATHER ROUNDUP FOR COLORADO
NATIONAL WEATHER SERVICE DENVER/BOULDER CO
1100 AM MDT MON MAY 04 2015

NOTE: "FAIR" INDICATES FEW OR NO CLOUDS BELOW 12000 FEET WITH NO
SIGNIFICANT WEATHER AND/OR OBSTRUCTIONS TO VISIBILITY.

COZ001>005-013-030-031-041800-
...NORTHWEST COLORADO...

CITY           SKY/WX    TMP DP  RH WIND       PRES   REMARKS
CRAIG          MOSUNNY   60  41  49 NE5       30.08F
HAYDEN         PTSUNNY   54  37  54 CALM      30.09F
MEEKER         MOSUNNY   58  42  55 SE3       30.08F
MOUNT WERNER   NOT AVBL
STEAMBOAT SPGS PTSUNNY   57  38  50 CALM      30.09F
WALDEN         CLOUDY    50  34  53 N3        30.14F
$$

COZ006>008-011-041800-
...WEST CENTRAL VALLEYS...

CITY           SKY/WX    TMP DP  RH WIND       PRES   REMARKS
GRAND JUNCTION MOSUNNY   64  42  44 MISG      30.01F
MONTROSE       MOSUNNY   64  40  41 VRB5      30.05F
EAGLE          PTSUNNY   54  43  66 CALM      30.12F
RIFLE          CLOUDY    58  47  66 CALM      30.06F
DELTA          MOSUNNY   67  42  41 W3        30.02F
NUCLA          MOSUNNY   64  36  34 NW7       30.07F
$$

COZ017>023-064>068-041800-
...SOUTHWEST COLORADO...

CITY           SKY/WX    TMP DP  RH WIND       PRES   REMARKS
DURANGO        PTSUNNY   61  38  42 SE8       30.09F
CORTEZ         PTSUNNY   64  38  38 SW9       30.04F
PAGOSA SPRINGS MOSUNNY   58  32  36 SW6       30.14F
TELLURIDE      CLOUDY    53  31  43 E3        30.18S
WOLF CREEK PAS NOT AVBL
$$

COZ009-010-012-014-032>034-037-058>063-041800-
...CENTRAL COLORADO...

CITY           SKY/WX    TMP DP  RH WIND       PRES   REMARKS
ASPEN          CLOUDY    55  40  56 N8        30.12S
BUENA VISTA    NOT AVBL
COPPER MTN     CLOUDY    37  28  70 S8        30.31S
BERTHOUD PASS  HAZE      30  21  69 SE8       30.34S VSB 3/4 WCI  23
COTTONWOOD PAS CLOUDY    45  39  81 SE3       30.25S
GUNNISON       SUNNY     48  37  66 CALM      30.19F
KREMMLING      PTSUNNY   55  34  44 CALM      30.12F
LEADVILLE      CLOUDY    42  33  70 S8        30.22S
MONARCH PASS   FOG       34  32  93 E5        30.42R VSB<1/4 WCI  30
SALIDA         CLOUDY    54  41  60 SE9       30.24S
SUNLIGHT       CLOUDY    41  34  75 NW3       30.28S THUNDER
WILKERSON PASS CLOUDY    34  34 100 CALM      30.33S FOG
$$

COZ069>075-041800-
...SAN LUIS VALLEY/SANGRE DE CRISTO MOUNTAINS...

CITY           SKY/WX    TMP DP  RH WIND       PRES   REMARKS
ALAMOSA        SUNNY     57  37  47 VRB3      30.15S
LA VETA PASS   CLOUDY    43  41  93 MISG      30.27S FOG
SAGUACHE       MOSUNNY   54  37  54 SE9       30.17S
$$

COZ035-036-038>040-041800-
...NORTHERN COLORADO FRONT RANGE...

CITY           SKY/WX    TMP DP  RH WIND       PRES   REMARKS
DENVER INTL AP CLOUDY    51  47  86 SE3       30.14S
DMNS CITY PARK   N/A     53  46  76 E3        30.14S
AURORA         CLOUDY    51  49  92 SE5       30.15S
FRONT RANGE AP CLOUDY    54  50  87 CALM      30.15S
ERIE MUNI ARPT CLOUDY    52  47  84 CALM      30.14S
BOULDER MUN AP CLOUDY    50  50 100 CALM      30.14S
CENTENNIAL     CLOUDY    53  46  77 N7        30.15R
BROOMFIELD     CLOUDY    50  48  93 VRB3      30.15S
FORT COLLINS   CLOUDY    52  45  76 S6        30.16S
LONGMONT       CLOUDY    53  48  83 CALM      30.16F
$$

COZ041-046-047-076>085-087-088-041800-
...PIKES PEAK/PALMER DIVIDE AND SOUTHERN FOOTHILLS...

CITY           SKY/WX    TMP DP  RH WIND       PRES   REMARKS
COLO. SPRINGS  PTSUNNY   56  45  66 S7        30.15S
A. F. ACADEMY  PTSUNNY   53  44  70 CALM      30.15S
ELLICOTT       CLOUDY   N/A N/A N/A S3        30.14S
FALCON         CLOUDY    52  44  74 E5        30.18S
FORT CARSON    CLOUDY    58  47  68 SE7       30.13R
LIMON          CLOUDY    54  47  77 E3        30.14S
MONUMENT HILL  CLOUDY    50  43  76 NE3       30.17R
TRINIDAD       PTSUNNY   62  45  53 VRB3      30.12S
$$

COZ042>045-048>051-090-091-041800-
...NORTHEAST COLORADO...

CITY           SKY/WX    TMP DP  RH WIND       PRES   REMARKS
GREELEY ARPT   CLOUDY    52  39  62 E9        30.16R
AKRON          CLOUDY    52  41  66 E8        30.14S
BURLINGTON     PTSUNNY   57  47  69 NE15      30.11R
WRAY           LGT RAIN  50  45  82 NE6       30.14R
STERLING       CLOUDY    57  41  54 E7        30.14S
HOLYOKE        NOT AVBL
FORT MORGAN    CLOUDY    52 -12   7 E8        30.15F
$$

COZ086-089-092>099-041800-
...SOUTHEAST COLORADO...

CITY           SKY/WX    TMP DP  RH WIND       PRES   REMARKS
PUEBLO         PTSUNNY   62  48  60 NE5       30.10S
LA JUNTA       PTSUNNY   65  49  56 NE7       30.09R
LAMAR          PTSUNNY   64  51  62 E12       30.07S
SPRINGFIELD      N/A     67  51  56 NE10      30.08R
$$


USA.gov is the U.S. government's official web portal to all federal, state and local government web resources and services.